Tracking 29088 objects as of 14-Jul-2024
HD Live streaming from Space Station
objects crossing your sky now

COSMOS 1275 DEB

Track COSMOS 1275 DEB now!
10-day predictions


NORAD ID: 42189
Int'l Code: 1981-053TD
Perigee: 917.0 km
Apogee: 1,096.3 km
Inclination: 83.0 °
Period: 105.1 minutes
Semi major axis: 7377 km
RCS: Unknown
Launch date: June 4, 1981
Source: Commonwealth of Independent States (former USSR) (CIS)
Launch site: PLESETSK MISSILE AND SPACE COMPLEX (PKMTR)

Note: This is SATELLITE DEBRIS
Your satellite tracking list
Your tracking list is empty




NASA's NSSDC Master Catalog

Two Line Element Set (TLE):
1 42189U 81053TD  24190.43357531  .00001105  00000-0  11786-2 0  9990
2 42189  83.0187  88.8500 0121579 213.1991 146.1494 13.70017246511842
Source of the keplerian elements: AFSPC